Weather History for Midland, MI

Change the Weather History Date:

Monday, June 3, 2013

  Actual Average (KMBS) Record (KMBS)
Temperature  
Mean Temperature 52 °F 64 °F  
Max Temperature 70 °F 74 °F 78 °F (2011)
Min Temperature 35 °F 53 °F 40 °F (2013)
Degree Days  
Heating Degree Days 12    
Month to date heating degree days  
Since 1 June heating degree days  
Since 1 July heating degree days  
Cooling Degree Days 0    
Month to date cooling degree days  
Year to date cooling degree days  
Since 1 June cooling degree days  
Growing Degree Days 2 (Base 50)    
Moisture  
Dew Point 40 °F    
Average Humidity 67    
Maximum Humidity 99    
Minimum Humidity 33    
Precipitation  
Precipitation 0.00 in 0.10 in 0.63 in (2007)
Month to date precipitation 0.29  
Year to date precipitation 11.94  
Snow  
Snow 0.00 in - - ()
Month to date snowfall  
Since 1 June snowfall  
Since 1 July snowfall  
Snow Depth -    
Sea Level Pressure  
Sea Level Pressure 30.04 in    
Wind  
Wind Speed 3 mph (WNW)    
Max Wind Speed 13 mph    
Max Gust Speed 23 mph    
Visibility 10 miles    
Events      
T = Trace of Precipitation, MM = Missing Value Source: NWS Daily Summary

Daily Weather History Graph

Daily Weather History Graph

Search for Another Location

Airport:

Trip Planner

Search our weather history database for the weather conditions in past years. The results will help you decide how hot, cold, wet, or windy it might be!

Date:

Astronomy

Jun. 03, 2013 Rise Set
Actual Time 5:57 AM EDT 9:13 PM EDT
Civil Twilight 5:22 AM EDT 9:48 PM EDT
Nautical Twilight 4:36 AM EDT 10:34 PM EDT
Astronomical Twilight 3:40 AM EDT 11:30 PM EDT
Moon 3:02 AM EDT (6/3) 4:36 PM EDT (6/3)
Length of Visible Light 16h 26m
Length of Day
15h 16m
Waning Crescent, 22% of the Moon is Illuminated
Jun 3
Waning Crescent
Jun 8
New
Jun 16
First Quarter
Jun 23
Full
Jun 30
Last Quarter

Hourly Weather History & Observations

Time (EDT) Temp. Windchill Dew Point Humidity Pressure Visibility Wind Dir Wind Speed Gust Speed Precip Events Conditions
12:13 AM 42.8 °F - 40.1 °F 90% 30.03 in 10.0 mi Calm Calm - N/A   Clear
12:33 AM 42.8 °F 41.1 °F 39.2 °F 87% 30.03 in 10.0 mi NW 3.5 mph - N/A   Clear
12:52 AM 41.2 °F 38.2 °F 39.2 °F 93% 30.03 in 10.0 mi NW 4.6 mph - N/A   Clear
1:12 AM 40.3 °F 38.2 °F 39.0 °F 95% 30.03 in 10.0 mi NW 3.5 mph - N/A   Clear
1:32 AM 41.0 °F - 39.2 °F 93% 30.04 in 10.0 mi Calm Calm - N/A   Clear
1:52 AM 40.3 °F - 39.2 °F 96% 30.04 in 10.0 mi Calm Calm - N/A   Clear
2:13 AM 40.3 °F - 39.2 °F 96% 30.04 in 10.0 mi Calm Calm - N/A   Clear
2:32 AM 39.2 °F - 38.1 °F 96% 30.04 in 10.0 mi Calm Calm - N/A   Clear
2:52 AM 39.2 °F - 38.5 °F 97% 30.04 in 10.0 mi Calm Calm - N/A   Clear
3:12 AM 38.7 °F - 37.9 °F 97% 30.03 in 10.0 mi Calm Calm - N/A   Clear
3:32 AM 37.6 °F - 37.0 °F 98% 30.03 in 10.0 mi Calm Calm - N/A   Clear
3:52 AM 38.3 °F - 37.9 °F 99% 30.04 in 10.0 mi Calm Calm - N/A   Clear
4:12 AM 37.4 °F - 36.9 °F 98% 30.04 in 10.0 mi Calm Calm - N/A   Clear
4:32 AM 36.7 °F - 36.5 °F 99% 30.04 in 10.0 mi Calm Calm - N/A   Clear
4:53 AM 36.0 °F - 35.8 °F 99% 30.04 in 10.0 mi Calm Calm - N/A   Clear
5:12 AM 36.3 °F - 36.1 °F 99% 30.04 in 10.0 mi Calm Calm - N/A   Clear
5:32 AM 36.1 °F - 36.0 °F 99% 30.05 in 10.0 mi Calm Calm - N/A   Clear
5:53 AM 36.5 °F - 36.3 °F 99% 30.06 in 10.0 mi Calm Calm - N/A   Clear
6:12 AM 35.8 °F - 35.6 °F 99% 30.06 in 10.0 mi Calm Calm - N/A   Clear
6:32 AM 36.1 °F - 36.0 °F 99% 30.07 in 10.0 mi Calm Calm - N/A   Clear
6:53 AM 37.8 °F - 37.6 °F 99% 30.07 in 10.0 mi Calm Calm - N/A   Clear
7:12 AM 40.1 °F - 39.7 °F 99% 30.07 in 10.0 mi Calm Calm - N/A   Clear
7:32 AM 42.6 °F 40.9 °F 40.6 °F 93% 30.08 in 10.0 mi West 3.5 mph - N/A   Clear
7:53 AM 44.4 °F 42.9 °F 40.8 °F 87% 30.08 in 10.0 mi West 3.5 mph - N/A   Clear
8:12 AM 46.2 °F 44.1 °F 41.7 °F 84% 30.07 in 10.0 mi NW 4.6 mph - N/A   Clear
8:32 AM 47.7 °F - 40.3 °F 76% 30.08 in 10.0 mi West 3.5 mph - N/A   Clear
8:46 AM 49.1 °F - 40.3 °F 72% 30.08 in 10.0 mi Calm Calm - N/A   Clear
9:12 AM 50.7 °F - 39.4 °F 65% 30.09 in 10.0 mi West 4.6 mph - N/A   Clear
9:32 AM 51.6 °F - 38.7 °F 61% 30.09 in 10.0 mi Calm Calm - N/A   Clear
9:53 AM 53.2 °F - 37.8 °F 56% 30.08 in 10.0 mi West 3.5 mph - N/A   Clear
10:12 AM 54.7 °F - 38.1 °F 54% 30.08 in 10.0 mi West 4.6 mph - N/A   Clear
10:32 AM 55.4 °F - 38.5 °F 53% 30.07 in 10.0 mi Calm Calm - N/A   Clear
10:53 AM 56.8 °F - 39.0 °F 51% 30.07 in 10.0 mi West 5.8 mph - N/A   Clear
11:12 AM 58.1 °F - 41.2 °F 53% 30.07 in 10.0 mi WNW 8.1 mph - N/A   Clear
11:33 AM 59.0 °F - 39.9 °F 49% 30.07 in 10.0 mi WNW 10.4 mph - N/A   Clear
11:52 AM 60.1 °F - 41.0 °F 49% 30.07 in 7.0 mi West 9.2 mph - N/A   Clear
12:12 PM 60.6 °F - 39.7 °F 46% 30.06 in 10.0 mi WSW 6.9 mph 17.3 mph N/A   Clear
12:33 PM 61.9 °F - 39.4 °F 43% 30.06 in 10.0 mi NW 10.4 mph - N/A   Clear
12:52 PM 61.9 °F - 39.7 °F 44% 30.06 in 10.0 mi West 10.4 mph 16.1 mph N/A   Clear
1:12 PM 63.0 °F - 40.6 °F 44% 30.05 in 10.0 mi WNW 10.4 mph - N/A   Clear
1:33 PM 63.7 °F - 41.4 °F 44% 30.04 in 10.0 mi West 6.9 mph - N/A   Clear
1:52 PM 64.0 °F - 40.6 °F 42% 30.04 in 7.0 mi WSW 3.5 mph 16.1 mph N/A   Clear
2:13 PM 65.1 °F - 41.4 °F 42% 30.03 in 10.0 mi West 12.7 mph 17.3 mph N/A   Clear
2:32 PM 66.0 °F - 41.7 °F 41% 30.02 in 10.0 mi WSW 8.1 mph 16.1 mph N/A   Scattered Clouds
2:53 PM 66.7 °F - 41.7 °F 40% 30.03 in 7.0 mi WNW 9.2 mph 23.0 mph N/A   Scattered Clouds
3:13 PM 66.9 °F - 42.1 °F 40% 30.02 in 10.0 mi WSW 8.1 mph - N/A   Mostly Cloudy
3:32 PM 67.5 °F - 42.3 °F 40% 30.01 in 10.0 mi West 8.1 mph - N/A   Scattered Clouds
3:53 PM 68.2 °F - 43.7 °F 41% 30.01 in 10.0 mi West 12.7 mph 16.1 mph N/A   Mostly Cloudy
4:13 PM 66.0 °F - 41.4 °F 41% 30.01 in 10.0 mi NW 5.8 mph - N/A   Mostly Cloudy
4:33 PM 66.0 °F - 41.9 °F 41% 30.00 in 10.0 mi NW 8.1 mph - N/A   Mostly Cloudy
4:53 PM 67.1 °F - 42.1 °F 40% 30.00 in 10.0 mi WNW 11.5 mph 17.3 mph N/A   Scattered Clouds
5:12 PM 69.3 °F - 41.4 °F 36% 29.99 in 10.0 mi WNW 10.4 mph 18.4 mph N/A   Scattered Clouds
5:33 PM 70.2 °F - 41.0 °F 35% 29.99 in 10.0 mi WNW 11.5 mph 19.6 mph N/A   Mostly Cloudy
5:53 PM 68.2 °F - 40.5 °F 36% 29.99 in 10.0 mi NW 8.1 mph 16.1 mph N/A   Mostly Cloudy
6:12 PM 68.7 °F - 39.2 °F 34% 29.99 in 10.0 mi WNW 10.4 mph - N/A   Scattered Clouds
6:33 PM 68.4 °F - 37.9 °F 33% 29.99 in 10.0 mi WNW 12.7 mph 16.1 mph N/A   Scattered Clouds
6:52 PM 67.6 °F - 39.0 °F 35% 29.99 in 10.0 mi NW 11.5 mph 16.1 mph N/A   Clear
6:58 PM 67.3 °F - 38.1 °F 34% 30.00 in 10.0 mi NW 11.5 mph 18.4 mph N/A   Clear
7:33 PM 65.8 °F - 38.3 °F 36% 30.01 in 10.0 mi NW 10.4 mph 17.3 mph N/A   Scattered Clouds
7:53 PM 63.9 °F - 39.9 °F 41% 30.02 in 10.0 mi NW 4.6 mph - N/A   Clear
8:12 PM 63.1 °F - 40.3 °F 43% 30.02 in 10.0 mi NNW 4.6 mph - N/A   Clear
8:33 PM 61.3 °F - 41.5 °F 48% 30.03 in 10.0 mi Calm Calm - N/A   Clear
8:52 PM 59.5 °F - 44.1 °F 57% 30.03 in 10.0 mi Calm Calm - N/A   Clear
9:13 PM 57.0 °F - 44.4 °F 63% 30.03 in 10.0 mi Calm Calm - N/A   Clear
9:33 PM 54.3 °F - 44.2 °F 69% 30.04 in 10.0 mi Calm Calm - N/A   Clear
9:52 PM 52.5 °F - 43.7 °F 72% 30.05 in 10.0 mi Calm Calm - N/A   Clear
10:13 PM 49.6 °F - 44.2 °F 82% 30.06 in 10.0 mi Calm Calm - N/A   Clear
10:33 PM 49.3 °F - 45.0 °F 85% 30.07 in 10.0 mi Calm Calm - N/A   Clear
10:52 PM 49.6 °F - 43.9 °F 81% 30.07 in 10.0 mi Calm Calm - N/A   Clear
11:13 PM 47.7 °F - 43.9 °F 87% 30.08 in 10.0 mi Calm Calm - N/A   Clear
11:33 PM 46.8 °F - 43.2 °F 87% 30.09 in 10.0 mi Calm Calm - N/A   Clear
11:53 PM 46.4 °F - 44.1 °F 92% 30.09 in 10.0 mi Calm Calm - N/A   Clear